Zurück zum Katalog

STARLINK-36377

AktivKommunikationSSO
NORAD 67812·PAYLOAD·🇺🇸 United States

Gestartet Feb 15, 2026 von Vandenberg Space Force Base

Loading…

Nächste Überflüge (nächste 24 Stunden)

TLE

AktuellSource: CelesTrak SupGP

Epoche: Sep 14, 2026, 22:41 UTC

1 67812C 26032R   26257.94562500  .00078135  00000+0  24260-2 0  2576
2 67812  97.2855  84.4809 0001602  93.0056  45.5728 15.33392670    18

Verfolge STARLINK-36377 in Echtzeit mit AllMySat

Download on the App Store